Location: Dulzura
(32.6442°N, 116.7814°W)
Time: 19:45:07
(UTC+00:00)

Cosmos 921 Rocket - Pass Details

Date: 07 December 2021
Orbit: 571 x 632 km, 75.8° (Epoch: 16 January)

Event Time Altitude Azimuth Distance (km) Brightness Sun altitude
Exits shadow 12:09:03 38° 121° (ESE) 965 4.4 -30.3°
Drops below altitude 10° 12:12:08 10° 149° (SSE) 2,000 6.1 -29.6°
Sets 12:14:26 0° 155° (SSE) 2,906 7.0 -29.2°
